STARLINK-1151 (45081 NORAD) Tracking and Keplerian Element Data

This shows tracking and keplerian element data for the satellite.

Feedback or suggestion? Click here.




ElementValue
Catalog45081
NameSTARLINK-1151
Epoch Orbit175
Epoch Day193.91667824
Epoch Year2020
RAAN184.7145
Inclination53.0025
Eccentricity0.0001238
Argument of Perigee106.0595
Mean Anonmoly63.6345
Mean Motion15.05569564
Decay Rate0.00028329
L11 45081U 20006AP 20193.91667824 .00028329 00000-0 19562-2 0 9993
L22 45081 53.0025 184.7145 0001238 106.0595 63.6345 15.05569564 1751

Live tracking and technical data element details for STARLINK-1151 (NORAD 45081). STARLINK-1151 can be tracked NOW for your location showing map with azimuth and elevation plus other details from your city location.

Track the satellite on the map from your city or location and see movement details for azimuth, elevation, latitude, longitude, range, height, and movement on the map or in text.







IsCatalogInMostPopularTable: catalog: 45081, numindb: 26
Update: records affected: 1



GetName: 45081 STARLINK-1151

Hit Count: updated at: Mon, 13 Jul 2020 05:23:23 GMT